Hourly Data Report for September 12, 2017

All times are specified in Local Standard Time (LST). Add 1 hour to adjust for Daylight Saving Time where and when it is observed.

ARCTIC BAY CS
NUNAVUT

72°59'34.000" N
85°00'44.000" W
10.00 m
2400404
71592
XAT

Download Data

Hourly Data (September 2017)
Hourly Data Report for September 12, 2017
Temp Definition
°C
Dew Point Temp Definition
°C
Rel Hum Definition
%
Wind Dir Definition
10's deg

Wind Spd Definition
km/h
Visibility Definition
km
Stn Press Definition
kPa
Hmdx Definition


Wind Chill Definition


Weather Definition


TIME
00:00 -0.5 -3.5 80 8 8   101.01   -3 LegendNANA
01:00 -1.1 -3.7 82 5 9   101.03   -4 LegendNANA
02:00 -0.8 -3.5 82 6 11   101.06   -5 LegendNANA
03:00 -0.6 -3.3 82 6 8   101.09   -3 LegendNANA
04:00 -0.5 -2.9 84 4 3   101.14   -1 LegendNANA
05:00 -0.8 -3.1 84 6 3   101.16   -2 LegendNANA
06:00 -0.7 -2.8 85 1 2   101.19   -1 LegendNANA
07:00 0.0 -2.5 83   0   101.22     LegendNANA
08:00 0.2 -2.5 83 6 2   101.24     LegendNANA
09:00 0.6 -1.6 85 30 4   101.24     LegendNANA
10:00 0.8 -1.5 84 32 15   101.24     LegendNANA
11:00 0.4 -1.2 89 31 18   101.28     LegendNANA
12:00 0.4 -2.3 82 34 23   101.31     LegendNANA
13:00 0.3 -2.6 81 33 23   101.33     LegendNANA
14:00 0.0 -3.0 80 31 26   101.35   -6 LegendNANA
15:00 0.2 -3.1 78 33 18         LegendNANA
16:00 0.0 -3.0 80 32 23   101.43   -6 LegendNANA
17:00 0.0 -3.2 79 31 23   101.46   -6 LegendNANA
18:00 0.1 -2.7 81 33 20   101.47     LegendNANA
19:00 -0.1 -2.6 83 33 15   101.53   -5 LegendNANA
20:00 0.1 -4.7 70 1 10   101.55     LegendNANA
21:00 0.1 -5.2 68 2 8   101.56     LegendNANA
22:00 -0.2 -5.2 69 8 6   101.56   -2 LegendNANA
23:00 -0.4 -5.1 70 11 3   101.58   -1 LegendNANA

Notes on Data Quality.

Legend

  • E = Estimated
  • M = Missing
  • NA = Not Available
  • ‡ = Partner data that is not subject to review by the National Climate Archives
Date modified: